Weather reports worldwide

Advertisment
Macon, France (7385): temperature & dewpoint: 16.06.2018 20:00:00 - 22.06.2018 20:00:00 (CEST)Macon, France (7385): temperature 5cm: 16.06.2018 20:00:00 - 22.06.2018 20:00:00 (CEST)Macon, France (7385): temperature -20cm & temperature -100cm: 16.06.2018 20:00:00 - 22.06.2018 20:00:00 (CEST)Macon, France (7385): wind speed & gusts: 16.06.2018 20:00:00 - 22.06.2018 20:00:00 (CEST)Macon, France (7385): wind direction: 16.06.2018 20:00:00 - 22.06.2018 20:00:00 (CEST)Macon, France (7385): reduced air pressure: 16.06.2018 20:00:00 - 22.06.2018 20:00:00 (CEST)Macon, France (7385): visibility: 16.06.2018 20:00:00 - 22.06.2018 20:00:00 (CEST)Macon, France (7385): sunshine duration: 16.06.2018 20:00:00 - 22.06.2018 20:00:00 (CEST)Macon, France (7385): precipitation: 16.06.2018 20:00:00 - 22.06.2018 20:00:00 (CEST)
Date & Time tt [°C] td [°C] tt 5cm [°C] tt -20cm [°C] tt -100cm [°C] ff [km/h] ff [kn] fx [km/h] fx [kn] dd ppp [hPa] vv [km] sd [min] rr [mm]
22.06.2018 20:00:00 19,9 6,9 21,6 23,9 18,4 29 16 49 26 N 1023,5 20 60 0,0
22.06.2018 19:00:00 20,9 7,5 24,7 23,8 18,4 27 14 52 28 N 1023,2 20 60 0,0
22.06.2018 18:00:00 21,3 7,1 26,2 23,5 18,4 29 16 52 28 N 1023,3 20 60 0,0
22.06.2018 17:00:00 21,5 7,0 26,7 23,3 18,4 28 15 53 29 N 1023,4 20 60 0,0
22.06.2018 16:00:00 21,4 7,6 27,1 23,1 18,4 25 14 48 26 N 1023,7 20 60 0,0
22.06.2018 15:00:00 20,8 7,1 26,4 22,9 18,4 28 15 53 29 N 1023,7 20 60 0,0
22.06.2018 14:00:00 19,9 6,6 25,5 22,7 18,4 32 18 56 31 N 1024,0 20 60 0,0
22.06.2018 13:00:00 19,2 4,9 24,8 22,5 18,3 32 17 53 28 N 1024,0 20 60 0,0
22.06.2018 12:00:00 18,0 4,5 22,5 22,5 18,3 29 16 48 26 N 1024,3 20 60 0,0
22.06.2018 11:00:00 16,5 6,3 21,4 22,5 18,3 30 16 48 26 N 1024,8 20 60 0,0
22.06.2018 10:00:00 15,3 6,6 18,4 22,7 18,3 28 15 43 23 N 1024,8 20 60 0,0
22.06.2018 09:00:00 13,7 6,5 16,4 22,9 18,3 23 13 40 21 N 1024,8 20 60 0,0
22.06.2018 08:00:00 12,3 5,7 12,5 23,2 18,3 22 12 39 21 N 1024,6 20 60 0,0
22.06.2018 07:00:00 11,5 4,7 10,4 23,5 18,3 20 11 38 21 N 1024,4 20 45 0,0
22.06.2018 06:00:00 11,4 4,8 10,4 23,8 18,3 16 9 33 18 NNW 1024,2 20 0 0,0
22.06.2018 05:00:00 12,2 5,6 11,0 24,1 18,3 14 8 37 20 NNW 1024,1 20 0 0,0
22.06.2018 04:00:00 13,3 6,2 12,2 24,3 18,3 18 10 39 21 NNW 1023,5 20 0 0,0
22.06.2018 03:00:00 14,6 6,9 13,6 24,6 18,3 23 12 44 24 N 1023,2 20 0 0,0
22.06.2018 02:00:00 16,0 7,7 14,8 24,8 18,3 22 12 45 24 NNW 1022,6 20 0 0,0
22.06.2018 01:00:00 16,9 9,1 15,7 25,1 18,3 15 8 30 16 NNW 1022,2 20 0 0,0
22.06.2018 00:00:00 18,0 10,1 16,9 25,3 18,3 18 10 42 23 N 1022,0 20 0 0,0
21.06.2018 23:00:00 19,3 13,0 18,3 25,4 18,3 17 9 34 19 N 1021,2 20 0 0,0
21.06.2018 22:00:00 21,0 14,2 20,2 25,5 18,2 22 12 39 21 N 1020,3 20 5 0,0
21.06.2018 21:00:00 22,8 15,4 22,5 25,5 18,2 18 10 45 25 NNW 1019,1 20 1 0,0
21.06.2018 20:00:00 24,9 16,1 24,8 25,4 18,2 26 14 44 24 N 1017,8 20 0 0,0
21.06.2018 19:00:00 27,2 14,6 27,0 25,2 18,2 15 8 26 14 NNW 1016,7 20 32 0,0
21.06.2018 18:00:00 28,9 15,8 30,8 24,9 18,2 13 7 28 15 N 1016,2 20 47 0,0
21.06.2018 17:00:00 29,9 14,0 30,7 24,6 18,2 10 5 25 13 NW 1016,4 19 51 0,0
21.06.2018 16:00:00 29,3 16,1 31,3 24,2 18,2 8 4 25 13 NNW 1016,5 20 45 0,0
21.06.2018 15:00:00 29,1 16,3 33,1 23,9 18,2 16 8 24 13 N 1016,7 20 53 0,0
21.06.2018 14:00:00 28,5 15,1 29,9 23,6 18,2 11 6 23 12 NW 1017,1 20 31 0,0
21.06.2018 13:00:00 28,2 16,8 35,1 23,3 18,2 11 6 24 13 N 1017,4 20 60 0,0
21.06.2018 12:00:00 27,4 17,8 32,6 23,1 18,2 8 4 21 11 NNW 1017,8 20 60 0,0
21.06.2018 11:00:00 26,3 17,9 31,3 23,0 18,2 10 6 20 11 N 1018,0 20 60 0,0
21.06.2018 10:00:00 24,8 17,0 29,6 23,0 18,1 10 6 16 9 N 1018,0 20 60 0,0
21.06.2018 09:00:00 24,0 17,3 27,9 23,1 18,2 7 4 17 9 NNE 1017,9 20 60 0,0
21.06.2018 08:00:00 22,5 17,4 19,1 23,2 18,1 0 0 3 2 N 1018,3 20 54 0,0
21.06.2018 07:00:00 17,8 15,4 15,2 23,4 18,1 2 1 7 4 ESE 1018,5 20 25 0,0
21.06.2018 06:00:00 18,7 14,6 15,4 23,6 18,1 3 2 17 9 NNW 1018,2 20 0 0,0
21.06.2018 05:00:00 17,0 15,0 14,2 23,9 18,1 5 3 13 7 WNW 1018,2 20 0 0,0
21.06.2018 04:00:00 16,4 14,4 12,7 24,1 18,1 4 2 10 6 NW 1018,3 20 0 0,0
21.06.2018 03:00:00 17,8 14,3 13,6 24,3 18,1 4 2 10 5 W 1018,3 20 0 0,0
21.06.2018 02:00:00 18,9 14,6 14,7 24,5 18,1 3 2 13 7 NNW 1018,2 20 0 0,0
21.06.2018 01:00:00 19,8 15,0 17,8 24,7 18,1 7 4 14 8 WNW 1018,3 20 0 0,0
21.06.2018 00:00:00 20,4 15,2 18,4 24,8 18,1 7 4 14 7 WNW 1018,6 20 0 0,0
20.06.2018 23:00:00 20,9 15,7 19,0 24,9 18,1 8 4 11 6 WNW 1018,7 20 0 0,0
20.06.2018 22:00:00 22,4 16,7 19,0 25,0 18,1 8 5 12 7 W 1018,1 20 2 0,0
20.06.2018 21:00:00 27,5 14,8 24,0 25,0 18,1 5 3 13 7 N 1017,2 20 60 0,0
20.06.2018 20:00:00 29,5 13,7 31,8 24,8 18,1 6 3 15 8 NNW 1017,1 20 60 0,0
20.06.2018 19:00:00 29,7 14,7 33,8 24,6 18,1 10 6 20 11 N 1017,0 20 60 0,0
20.06.2018 18:00:00 29,9 16,7 35,9 24,2 18,1 9 5 20 11 N 1017,3 20 60 0,0
20.06.2018 17:00:00 29,7 16,5 35,5 23,8 18,1 5 3 22 12 NE 1017,9 20 60 0,0
20.06.2018 16:00:00 29,6 17,1 35,1 23,4 18,1 6 3 23 12 ESE 1018,1 20 60 0,0
20.06.2018 15:00:00 28,3 18,1 34,4 23,0 18,1 8 5 18 10 NE 1018,7 20 60 0,0
20.06.2018 14:00:00 27,6 18,3 34,0 22,7 18,1 6 4 14 8 ENE 1019,3 20 60 0,0
20.06.2018 13:00:00 26,5 19,1 32,9 22,3 18,1 5 3 14 8 ENE 1019,9 20 60 0,0
20.06.2018 12:00:00 24,7 17,4 30,7 22,1 18,1 7 4 16 9 E 1020,4 20 60 0,0
20.06.2018 11:00:00 23,5 17,9 29,0 22,0 18,1 7 4 17 9 NE 1020,6 20 60 0,0
20.06.2018 10:00:00 22,3 16,3 27,6 22,0 18,1 5 3 21 11 NW 1020,9 20 60 0,0
20.06.2018 09:00:00 21,4 16,6 21,6 22,1 18,1 8 4 16 9 N 1021,1 20 46 0,0
20.06.2018 08:00:00 19,4 15,9 19,2 22,3 18,1 9 5 21 12 NW 1021,2 20 60 0,0
20.06.2018 07:00:00 17,6 15,2 16,2 22,5 18,1 13 7 23 13 NW 1021,2 20 45 0,0
20.06.2018 06:00:00 17,2 15,2 16,2 22,6 18,1 13 7 26 14 NW 1021,2 20 0 0,0
20.06.2018 05:00:00 17,5 15,3 16,4 22,8 18,0 12 6 20 11 NW 1021,2 20 0 0,0
20.06.2018 04:00:00 18,5 15,4 17,1 23,0 18,1 11 6 21 11 NW 1021,1 20 0 0,0
20.06.2018 03:00:00 19,2 15,7 17,7 23,1 18,1 11 6 27 15 NW 1020,9 20 0 0,0
20.06.2018 02:00:00 20,6 15,8 19,1 23,3 18,1 11 6 28 15 N 1021,1 20 0 0,0
20.06.2018 01:00:00 21,3 15,8 20,0 23,4 18,1 18 10 29 16 N 1021,2 20 0 0,0
20.06.2018 00:00:00 22,0 14,9 19,5 23,5 18,0 13 7 24 13 N 1021,2 20 0 0,0
19.06.2018 23:00:00 21,4 15,5 19,5 23,6 18,1 9 5 17 9 NW 1021,2 20 0 0,0
19.06.2018 22:00:00 22,5 15,6 20,4 23,6 18,0 10 5 18 10 NW 1021,0 20 2 0,0
19.06.2018 21:00:00 25,0 15,9 24,0 23,6 18,1 12 7 26 14 N 1020,7 20 60 0,0
19.06.2018 20:00:00 26,5 15,8 28,8 23,4 18,1 14 8 31 17 N 1020,7 20 60 0,0
19.06.2018 19:00:00 27,1 16,1 31,7 23,2 18,1 18 10 33 18 N 1020,9 20 60 0,0
19.06.2018 18:00:00 27,5 16,8 33,3 22,9 18,1 15 8 34 19 N 1021,1 20 60 0,0
19.06.2018 17:00:00 27,4 16,7 32,1 22,4 18,1 18 10 35 19 NNE 1021,7 20 60 0,0
19.06.2018 16:00:00 27,4 17,3 33,4 22,1 18,1 14 8 33 18 N 1022,0 20 60 0,0
19.06.2018 15:00:00 26,4 17,2 31,7 21,7 18,1 19 10 33 18 NNE 1022,6 20 57 0,0
19.06.2018 14:00:00 25,7 16,5 32,1 21,3 18,1 17 9 34 18 N 1023,1 20 60 0,0
19.06.2018 13:00:00 24,7 15,9 31,7 21,0 18,1 16 9 29 16 N 1023,5 20 60 0,0
19.06.2018 12:00:00 23,5 15,5 26,9 20,8 18,0 18 10 28 15 N 1024,2 20 48 0,0
19.06.2018 11:00:00 23,1 15,4 25,1 20,7 18,1 17 9 25 13 N 1024,4 20 58 0,0
19.06.2018 10:00:00 21,4 15,7 23,4 20,7 18,1 14 7 25 13 N 1025,0 20 49 0,0
19.06.2018 09:00:00 20,2 15,2 21,0 20,8 18,0 10 5 16 9 N 1025,3 20 40 0,0
19.06.2018 08:00:00 19,4 14,9 17,9 20,9 18,1 7 4 14 7 N 1025,2 20 57 0,0
19.06.2018 07:00:00 16,5 14,0 14,3 21,1 18,1 6 3 14 8 NW 1025,2 20 45 0,0
19.06.2018 06:00:00 15,4 13,4 13,8 21,3 18,0 9 5 14 8 NW 1025,2 20 0 0,0
19.06.2018 05:00:00 15,3 13,5 12,0 21,4 18,1 9 5 15 8 NW 1025,0 20 0 0,0
19.06.2018 04:00:00 15,6 13,6 12,2 21,6 18,0 6 4 14 7 N 1024,9 20 0 0,0
19.06.2018 03:00:00 16,6 13,5 14,2 21,7 18,1 8 5 17 9 NW 1024,6 20 0 0,0
19.06.2018 02:00:00 17,3 13,6 14,2 21,9 18,1 14 8 21 12 NW 1024,7 20 0 0,0
19.06.2018 01:00:00 16,1 13,4 14,2 22,1 18,0 7 4 17 9 N 1024,7 20 0 0,0
19.06.2018 00:00:00 16,9 13,6 15,8 22,2 18,0 12 6 17 9 WNW 1024,8 20 0 0,0
18.06.2018 23:00:00 17,4 13,7 16,2 22,3 18,0 11 6 18 10 WNW 1024,4 20 0 0,0
18.06.2018 22:00:00 18,4 13,9 17,0 22,4 18,0 11 6 17 9 NW 1024,2 20 0 0,0
18.06.2018 21:00:00 19,9 14,3 18,9 22,4 18,0 11 6 23 12 NW 1023,7 20 45 0,0
18.06.2018 20:00:00 20,6 14,3 20,4 22,3 18,0 15 8 27 15 NW 1023,6 20 20 0,0
18.06.2018 19:00:00 20,7 14,1 20,5 22,2 18,0 18 10 29 16 NW 1023,4 20 0 0,0
18.06.2018 18:00:00 21,8 13,9 24,0 22,1 18,0 17 9 27 15 WNW 1023,3 20 17 0,0
18.06.2018 17:00:00 21,5 14,2 23,7 21,9 18,0 16 8 26 14 WNW 1023,4 20 0 0,0
18.06.2018 16:00:00 21,4 13,8 23,8 21,7 18,0 14 7 28 15 WNW 1023,6 20 0 0,0
18.06.2018 15:00:00 21,3 13,7 23,4 21,5 18,0 16 9 29 16 WNW 1023,7 20 0 0,0
18.06.2018 14:00:00 21,4 13,3 24,2 21,3 18,0 13 7 28 15 NW 1023,5 20 9 0,0
18.06.2018 13:00:00 21,5 12,9 24,1 21,2 18,0 14 8 30 16 WNW 1023,9 20 17 0,0
18.06.2018 12:00:00 20,4 13,4 22,0 21,0 18,0 14 8 24 13 WNW 1023,9 20 7 0,0
18.06.2018 11:00:00 20,1 12,1 21,4 21,0 18,0 12 7 26 14 NW 1023,8 20 40 0,0
18.06.2018 10:00:00 19,8 12,1 23,0 21,0 18,0 15 8 26 14 WNW 1023,6 20 60 0,0
18.06.2018 09:00:00 18,8 12,1 17,8 21,1 18,0 10 5 23 12 NW 1023,5 20 46 0,0
18.06.2018 08:00:00 16,6 10,9 16,3 21,3 18,0 16 8 28 15 NW 1023,4 20 33 0,0
18.06.2018 07:00:00 16,0 10,5 12,8 21,5 18,0 11 6 20 11 NW 1023,5 20 18 0,0
18.06.2018 06:00:00 14,3 9,7 12,4 21,7 18,0 8 4 17 9 NW 1023,4 20 0 0,0
18.06.2018 05:00:00 14,7 9,7 13,2 21,9 18,0 10 5 25 14 NW 1023,2 20 0 0,0
18.06.2018 04:00:00 15,1 9,9 13,6 22,1 18,0 15 8 27 15 NW 1023,0 20 0 0,0
18.06.2018 03:00:00 15,5 9,8 13,8 22,3 18,0 16 8 24 13 NW 1023,0 20 0 0,0
18.06.2018 02:00:00 15,4 10,4 13,8 22,5 18,0 13 7 21 12 NW 1023,0 20 0 0,0
18.06.2018 01:00:00 15,2 11,0 13,7 22,7 18,0 9 5 19 10 NW 1023,0 20 0 0,0
18.06.2018 00:00:00 15,5 11,3 14,3 22,9 18,0 11 6 18 10 NW 1023,1 20 0 0,0
17.06.2018 23:00:00 16,4 11,3 14,5 23,0 18,0 9 5 14 8 WNW 1022,7 20 0 0,0
17.06.2018 22:00:00 17,3 10,9 14,6 23,1 18,0 6 4 12 6 NW 1022,1 20 0 0,0
17.06.2018 21:00:00 19,4 10,4 18,0 23,2 18,0 10 5 27 14 NW 1021,6 20 49 0,0
17.06.2018 20:00:00 21,1 11,1 22,8 23,1 17,9 16 9 31 17 WNW 1021,0 20 56 0,0
17.06.2018 19:00:00 22,1 11,5 22,6 23,0 18,0 17 9 29 16 NW 1020,5 20 33 0,0
17.06.2018 18:00:00 21,2 11,5 22,4 22,7 17,9 17 9 33 18 NW 1020,5 20 11 0,0
17.06.2018 17:00:00 20,9 12,1 24,3 22,5 17,9 17 9 36 20 NW 1020,7 20 47 0,0
17.06.2018 16:00:00 21,0 13,2 23,4 22,3 17,9 19 10 38 20 WNW 1020,8 20 23 0,0
17.06.2018 15:00:00 21,3 12,7 24,9 22,1 17,9 16 8 31 17 WNW 1020,6 20 41 0,0
17.06.2018 14:00:00 20,4 13,8 22,5 21,9 17,9 15 8 31 17 WNW 1020,9 20 23 0,0
17.06.2018 13:00:00 20,0 13,2 21,3 21,8 17,9 18 10 34 19 WNW 1021,0 20 33 0,0
17.06.2018 12:00:00 18,9 13,5 21,2 21,7 17,9 18 10 37 20 WNW 1021,0 20 37 0,0
17.06.2018 11:00:00 19,2 14,0 21,5 21,7 17,9 22 12 39 21 WNW 1020,7 20 56 0,0
17.06.2018 10:00:00 18,4 13,5 19,6 21,8 17,9 23 12 37 20 WNW 1020,6 20 29 0,0
17.06.2018 09:00:00 17,9 13,4 18,3 21,9 17,9 22 12 37 20 WNW 1020,4 20 11 0,0
17.06.2018 08:00:00 17,5 13,2 16,9 22,1 17,9 19 11 36 19 NW 1019,8 20 13 0,0
17.06.2018 07:00:00 16,9 13,0 16,3 22,3 17,9 17 9 41 22 WNW 1019,4 20 7 0,0
17.06.2018 06:00:00 16,9 12,8 16,1 22,5 17,9 18 10 31 17 WNW 1018,8 20 0 0,0
17.06.2018 05:00:00 17,3 13,0 15,6 22,6 17,9 14 8 31 17 WNW 1018,6 20 0 0,0
17.06.2018 04:00:00 17,1 12,6 16,1 22,8 17,9 16 8 28 15 WNW 1018,4 20 0 0,0
17.06.2018 03:00:00 18,1 12,1 17,1 23,0 17,9 18 10 27 15 WNW 1018,5 20 0 0,0
17.06.2018 02:00:00 18,5 12,5 17,6 23,2 17,9 15 8 26 14 NW 1018,1 20 0 0,0
17.06.2018 01:00:00 19,3 13,5 18,8 23,3 17,9 18 10 37 20 NW 1018,1 20 0 0,0
17.06.2018 00:00:00 19,8 14,4 17,8 23,4 17,9 14 8 27 14 WNW 1017,8 20 0 0,0
16.06.2018 23:00:00 19,1 14,1 17,8 23,6 17,9 11 6 17 9 WNW 1017,5 20 0 0,0
16.06.2018 22:00:00 21,2 13,6 18,7 23,5 17,9 6 4 16 9 NW 1016,5 20 1 0,0
16.06.2018 21:00:00 23,5 13,9 22,3 23,5 17,9 8 4 20 11 NNW 1015,6 20 60 0,0
16.06.2018 20:00:00 24,8 14,6 26,5 23,3 17,9 14 8 24 13 WNW 1014,8 20 58 0,0

tt = temperature
td = dewpoint
tt 5cm = temperature 5cm
tt -20cm = temperature -20cm
tt -100cm = temperature -100cm
ff = wind speed
fx = gusts
dd = wind direction
ppp = reduced air pressure
vv = visibility
sd = sunshine duration
rr = precipitation

Next stations